QPF
0.07 0.08 0.10 0.13 0.14 0.12 0.12 0.10 0.10 0.11 0.10 0.06 0.04 0.03 0.04 0.03 0.02 0.02 0.02 0.02 0.02 0.03 0.02 0.02 0.03 0.04 0.04 0.03 0.03 0.03 0.03 0.03 0.03 0.02 0.01 0.01 0.01 0.02 0.02 0.02 0.02 0.02 0.02
0.05 0.07 0.07 0.10 0.12 0.13 0.11 0.10 0.09 0.09 0.10 0.09 0.06 0.05 0.04 0.03 0.03 0.02 0.01 0.01 0.01 0.01 0.02 0.02 0.02 0.03 0.05 0.05 0.03 0.03 0.03 0.03 0.03 0.03 0.02 0.01 0.02 0.04 0.05 0.06 0.05 0.04 0.03
0.05 0.07 0.08 0.09 0.09 0.12 0.11 0.07 0.09 0.12 0.11 0.08 0.06 0.04 0.03 0.02 0.02 0.02 0.01 0.01 0.01 0.01 0.01 0.02 0.02 0.02 0.02 0.04 0.03 0.02 0.02 0.02 0.03 0.03 0.03 0.02 0.02 0.03 0.06 0.08 0.07 0.05 0.04
0.07 0.08 0.09 0.10 0.10 0.09 0.10 0.09 0.11 0.13 0.13 0.08 0.05 0.04 0.03 0.02 0.01 0.01 0.01 0.01 0.00 0.01 0.01 0.02 0.02 0.02 0.02 0.02 0.02 0.01 0.01 0.02 0.02 0.02 0.03 0.02 0.02 0.02 0.04 0.07 0.08 0.07 0.05
0.08 0.10 0.11 0.10 0.10 0.09 0.08 0.08 0.07 0.09 0.08 0.06 0.05 0.04 0.03 0.03 0.02 0.02 0.01 0.01 0.01 0.01 0.02 0.02 0.03 0.03 0.02 0.02 0.01 0.01 0.01 0.01 0.02 0.02 0.02 0.03 0.03 0.02 0.02 0.03 0.05 0.07 0.06
0.08 0.09 0.10 0.10 0.10 0.09 0.07 0.05 0.04 0.04 0.03 0.03 0.04 0.05 0.04 0.04 0.03 0.03 0.03 0.03 0.03 0.03 0.03 0.03 0.03 0.03 0.02 0.02 0.02 0.02 0.02 0.01 0.01 0.02 0.02 0.03 0.03 0.03 0.03 0.03 0.03 0.04 0.06
0.08 0.09 0.11 0.11 0.10 0.08 0.06 0.04 0.03 0.03 0.03 0.04 0.05 0.06 0.06 0.05 0.04 0.04 0.04 0.03 0.03 0.03 0.04 0.04 0.03 0.02 0.02 0.02 0.03 0.03 0.03 0.02 0.02 0.02 0.02 0.02 0.03 0.03 0.03 0.03 0.02 0.03 0.04
0.09 0.10 0.13 0.12 0.10 0.08 0.06 0.04 0.04 0.04 0.04 0.06 0.07 0.07 0.07 0.08 0.06 0.04 0.04 0.04 0.04 0.04 0.04 0.04 0.03 0.03 0.03 0.02 0.02 0.02 0.02 0.02 0.02 0.03 0.03 0.03 0.02 0.02 0.02 0.02 0.02 0.02 0.03
0.07 0.09 0.10 0.09 0.08 0.08 0.06 0.05 0.05 0.05 0.05 0.05 0.05 0.05 0.05 0.05 0.05 0.04 0.04 0.04 0.04 0.04 0.03 0.03 0.03 0.03 0.03 0.02 0.02 0.02 0.02 0.02 0.02 0.02 0.02 0.02 0.02 0.02 0.02 0.03 0.02 0.02 0.03
0.08 0.09 0.10 0.12 0.14 0.12 0.09 0.06 0.05 0.04 0.05 0.04 0.04 0.03 0.03 0.04 0.04 0.04 0.03 0.03 0.03 0.03 0.03 0.03 0.02 0.02 0.03 0.02 0.01 0.01 0.01 0.01 0.02 0.02 0.02 0.01 0.01 0.02 0.02 0.03 0.03 0.02 0.03
0.07 0.08 0.09 0.10 0.11 0.10 0.09 0.06 0.04 0.04 0.03 0.03 0.03 0.03 0.02 0.02 0.02 0.02 0.02 0.02 0.02 0.02 0.02 0.02 0.03 0.03 0.03 0.02 0.01 0.01 0.01 0.01 0.01 0.01 0.01 0.01 0.01 0.01 0.02 0.02 0.03 0.03 0.03
0.04 0.05 0.04 0.03 0.03 0.03 0.03 0.03 0.03 0.04 0.04 0.03 0.02 0.01 0.01 0.01 0.01 0.01 0.01 0.01 0.02 0.02 0.02 0.02 0.03 0.03 0.03 0.02 0.02 0.01 0.01 0.02 0.03 0.02 0.02 0.01 0.01 0.01 0.01 0.01 0.01 0.02 0.02
0.03 0.03 0.02 0.02 0.01 0.01 0.01 0.02 0.03 0.04 0.06 0.05 0.03 0.01 0.01 0.01 0.00 0.00 0.01 0.01 0.02 0.02 0.03 0.03 0.03 0.04 0.04 0.03 0.02 0.02 0.02 0.02 0.03 0.03 0.04 0.04 0.03 0.02 0.01 0.01 0.01 0.01 0.02
0.01 0.02 0.01 0.01 0.01 0.01 0.01 0.01 0.02 0.04 0.05 0.03 0.02 0.01 0.01 0.01 0.00 0.00 0.01 0.01 0.01 0.01 0.02 0.02 0.03 0.04 0.04 0.04 0.03 0.03 0.03 0.03 0.02 0.02 0.02 0.03 0.03 0.03 0.03 0.03 0.02 0.01 0.02
0.02 0.02 0.02 0.02 0.01 0.01 0.01 0.03 0.03 0.04 0.03 0.02 0.01 0.00 0.00 0.00 0.01 0.01 0.00 0.00 0.00 0.01 0.01 0.01 0.02 0.02 0.02 0.03 0.03 0.02 0.02 0.02 0.01 0.01 0.01 0.01 0.01 0.02 0.02 0.02 0.02 0.02 0.02
0.02 0.02 0.02 0.02 0.01 0.01 0.02 0.02 0.02 0.01 0.01 0.01 0.01 0.01 0.01 0.01 0.01 0.01 0.02 0.01 0.01 0.00 0.00 0.01 0.01 0.01 0.01 0.02 0.02 0.01 0.01 0.01 0.00 0.01 0.01 0.01 0.01 0.01 0.01 0.01 0.01 0.01 0.01
0.03 0.03 0.03 0.03 0.02 0.02 0.02 0.02 0.01 0.01 0.01 0.01 0.01 0.01 0.01 0.01 0.01 0.01 0.03 0.03 0.02 0.01 0.00 0.00 0.00 0.00 0.00 0.00 0.01 0.01 0.00 0.00 0.00 0.00 0.00 0.00 0.01 0.01 0.01 0.01 0.01 0.00 0.01
0.02 0.02 0.02 0.03 0.02 0.02 0.03 0.02 0.01 0.02 0.01 0.01 0.01 0.01 0.01 0.01 0.01 0.01 0.02 0.02 0.02 0.01 0.00 0.00 0.00 0.00 0.00 0.00 0.01 0.00 0.01 0.01 0.00 0.00 0.00 0.00 0.01 0.01 0.01 0.01 0.01 0.00 0.01
0.02 0.01 0.02 0.02 0.02 0.02 0.03 0.02 0.01 0.01 0.01 0.01 0.01 0.01 0.00 0.00 0.00 0.00 0.00 0.00 0.00 0.00 0.01 0.00 0.00 0.01 0.01 0.01 0.01 0.01 0.01 0.01 0.01 0.01 0.01 0.01 0.01 0.01 0.01 0.01 0.01 0.01 0.01
0.01 0.01 0.02 0.02 0.03 0.03 0.02 0.02 0.01 0.01 0.01 0.01 0.01 0.00 0.01 0.00 0.00 0.00 0.00 0.00 0.00 0.00 0.01 0.01 0.00 0.01 0.01 0.01 0.01 0.03 0.02 0.02 0.01 0.01 0.02 0.03 0.03 0.03 0.03 0.02 0.02 0.01 0.02
0.01 0.01 0.02 0.02 0.02 0.03 0.03 0.02 0.02 0.02 0.01 0.01 0.00 0.00 0.00 0.00 0.00 0.00 0.00 0.00 0.00 0.00 0.01 0.01 0.01 0.01 0.00 0.00 0.01 0.02 0.02 0.02 0.02 0.02 0.02 0.03 0.03 0.03 0.02 0.02 0.02 0.02 0.02
0.01 0.02 0.02 0.02 0.02 0.02 0.03 0.03 0.02 0.02 0.01 0.01 0.00 0.00 0.00 0.00 0.00 0.00 0.00 0.00 0.00 0.00 0.00 0.01 0.00 0.00 0.00 0.00 0.01 0.01 0.01 0.02 0.02 0.02 0.01 0.02 0.02 0.02 0.02 0.02 0.03 0.02 0.01
0.02 0.03 0.03 0.02 0.02 0.01 0.02 0.03 0.04 0.03 0.02 0.01 0.00 0.00 0.00 0.00 0.00 0.00 0.00 0.00 0.00 0.00 0.00 0.00 0.00 0.00 0.00 0.00 0.00 0.00 0.01 0.01 0.01 0.01 0.02 0.01 0.01 0.01 0.02 0.02 0.02 0.01 0.01
0.04 0.04 0.04 0.03 0.02 0.02 0.02 0.02 0.03 0.04 0.03 0.02 0.01 0.00 0.00 0.00 0.00 0.00 0.00 0.00 0.00 0.00 0.00 0.00 0.00 0.00 0.00 0.00 0.00 0.00 0.00 0.01 0.01 0.01 0.01 0.01 0.00 0.01 0.01 0.01 0.01 0.01 0.01
0.06 0.05 0.04 0.02 0.02 0.02 0.02 0.02 0.03 0.03 0.03 0.01 0.00 0.00 0.00 0.00 0.00 0.00 0.00 0.00 0.00 0.00 0.00 0.00 0.00 0.00 0.00 0.00 0.00 0.00 0.00 0.00 0.00 0.00 0.00 0.00 0.00 0.00 0.01 0.01 0.01 0.02 0.02
0.06 0.05 0.04 0.02 0.01 0.01 0.01 0.01 0.02 0.02 0.01 0.01 0.00 0.00 0.00 0.00 0.00 0.00 0.00 0.00 0.00 0.00 0.00 0.00 0.00 0.00 0.00 0.00 0.00 0.00 0.00 0.00 0.00 0.00 0.00 0.00 0.00 0.00 0.01 0.01 0.01 0.02 0.02
MSLP
1017.13 1017.64 1018.10 1018.47 1018.72 1018.84 1018.86 1018.83 1018.80 1018.79 1018.85 1018.96 1019.11 1019.26 1019.40 1019.49 1019.53 1019.51 1019.45 1019.38 1019.31 1019.25 1019.21 1019.16 1019.11 1019.04 1018.93 1018.79 1018.62 1018.44 1018.26 1018.09 1017.94 1017.81 1017.68 1017.55 1017.39 1017.22 1017.03 1016.84 1016.68 1016.57 1016.54
1017.26 1017.79 1018.27 1018.64 1018.88 1018.99 1019.01 1019.00 1019.00 1019.06 1019.19 1019.39 1019.63 1019.86 1020.05 1020.17 1020.21 1020.17 1020.07 1019.95 1019.84 1019.74 1019.66 1019.60 1019.54 1019.45 1019.32 1019.15 1018.94 1018.71 1018.47 1018.24 1018.04 1017.86 1017.70 1017.55 1017.40 1017.24 1017.07 1016.90 1016.77 1016.68 1016.67
1017.23 1017.79 1018.29 1018.68 1018.94 1019.07 1019.12 1019.14 1019.20 1019.32 1019.53 1019.81 1020.13 1020.43 1020.67 1020.81 1020.84 1020.78 1020.65 1020.48 1020.32 1020.19 1020.09 1020.01 1019.93 1019.83 1019.69 1019.50 1019.26 1018.99 1018.70 1018.43 1018.19 1017.98 1017.80 1017.65 1017.50 1017.36 1017.21 1017.09 1016.98 1016.93 1016.94
1017.12 1017.71 1018.26 1018.69 1018.99 1019.17 1019.26 1019.33 1019.43 1019.61 1019.88 1020.22 1020.59 1020.93 1021.19 1021.34 1021.36 1021.28 1021.11 1020.91 1020.72 1020.55 1020.42 1020.33 1020.24 1020.14 1019.99 1019.79 1019.53 1019.24 1018.93 1018.62 1018.35 1018.12 1017.93 1017.77 1017.64 1017.52 1017.41 1017.32 1017.26 1017.25 1017.29
1017.03 1017.68 1018.28 1018.78 1019.13 1019.36 1019.49 1019.60 1019.74 1019.95 1020.24 1020.60 1020.98 1021.33 1021.60 1021.74 1021.75 1021.64 1021.45 1021.22 1021.00 1020.81 1020.66 1020.56 1020.46 1020.35 1020.20 1019.99 1019.73 1019.42 1019.09 1018.77 1018.48 1018.23 1018.03 1017.87 1017.75 1017.65 1017.58 1017.53 1017.51 1017.54 1017.62
1017.06 1017.77 1018.45 1019.01 1019.42 1019.69 1019.86 1019.99 1020.13 1020.34 1020.62 1020.96 1021.32 1021.64 1021.88 1022.00 1021.99 1021.87 1021.66 1021.42 1021.18 1020.97 1020.81 1020.69 1020.58 1020.47 1020.31 1020.10 1019.83 1019.51 1019.17 1018.84 1018.53 1018.26 1018.04 1017.88 1017.75 1017.67 1017.63 1017.62 1017.65 1017.73 1017.86
1017.27 1018.05 1018.79 1019.41 1019.87 1020.18 1020.36 1020.49 1020.61 1020.77 1021.00 1021.29 1021.59 1021.87 1022.07 1022.16 1022.13 1022.00 1021.79 1021.54 1021.29 1021.07 1020.89 1020.75 1020.63 1020.49 1020.32 1020.10 1019.82 1019.49 1019.14 1018.79 1018.46 1018.17 1017.93 1017.74 1017.61 1017.53 1017.51 1017.53 1017.62 1017.76 1017.94
1017.67 1018.51 1019.30 1019.96 1020.45 1020.77 1020.95 1021.04 1021.11 1021.22 1021.37 1021.58 1021.81 1022.02 1022.18 1022.25 1022.21 1022.07 1021.86 1021.61 1021.36 1021.13 1020.93 1020.77 1020.61 1020.45 1020.25 1020.00 1019.70 1019.36 1018.99 1018.62 1018.26 1017.94 1017.67 1017.46 1017.31 1017.22 1017.21 1017.26 1017.39 1017.59 1017.85
1018.22 1019.09 1019.91 1020.59 1021.08 1021.39 1021.53 1021.58 1021.60 1021.62 1021.70 1021.82 1021.98 1022.13 1022.25 1022.29 1022.24 1022.11 1021.91 1021.67 1021.41 1021.17 1020.95 1020.74 1020.54 1020.33 1020.09 1019.80 1019.48 1019.11 1018.72 1018.33 1017.95 1017.60 1017.30 1017.06 1016.88 1016.78 1016.76 1016.84 1017.01 1017.27 1017.60
1018.84 1019.72 1020.54 1021.20 1021.66 1021.93 1022.04 1022.04 1021.99 1021.95 1021.95 1022.01 1022.10 1022.20 1022.28 1022.31 1022.27 1022.14 1021.96 1021.72 1021.46 1021.19 1020.93 1020.67 1020.41 1020.14 1019.85 1019.52 1019.16 1018.77 1018.36 1017.95 1017.55 1017.18 1016.85 1016.58 1016.38 1016.26 1016.24 1016.33 1016.53 1016.84 1017.24
1019.45 1020.31 1021.07 1021.68 1022.10 1022.32 1022.38 1022.33 1022.24 1022.16 1022.11 1022.12 1022.17 1022.24 1022.31 1022.33 1022.29 1022.18 1022.00 1021.76 1021.49 1021.19 1020.87 1020.55 1020.22 1019.88 1019.52 1019.15 1018.75 1018.34 1017.93 1017.51 1017.11 1016.73 1016.38 1016.09 1015.87 1015.73 1015.71 1015.80 1016.02 1016.37 1016.84
1019.97 1020.76 1021.45 1021.99 1022.33 1022.50 1022.53 1022.45 1022.34 1022.24 1022.17 1022.17 1022.20 1022.26 1022.32 1022.35 1022.31 1022.21 1022.03 1021.78 1021.48 1021.13 1020.76 1020.36 1019.96 1019.54 1019.12 1018.70 1018.28 1017.85 1017.44 1017.03 1016.64 1016.28 1015.94 1015.65 1015.42 1015.28 1015.24 1015.33 1015.56 1015.93 1016.44
1020.34 1021.04 1021.64 1022.08 1022.36 1022.48 1022.49 1022.41 1022.31 1022.22 1022.17 1022.17 1022.21 1022.27 1022.33 1022.36 1022.32 1022.21 1022.02 1021.74 1021.41 1021.01 1020.57 1020.10 1019.62 1019.14 1018.66 1018.19 1017.75 1017.32 1016.92 1016.55 1016.19 1015.86 1015.55 1015.28 1015.06 1014.92 1014.88 1014.97 1015.19 1015.57 1016.09
1020.55 1021.15 1021.63 1021.99 1022.21 1022.30 1022.30 1022.25 1022.19 1022.14 1022.13 1022.15 1022.21 1022.29 1022.34 1022.36 1022.31 1022.18 1021.96 1021.66 1021.28 1020.83 1020.33 1019.79 1019.24 1018.69 1018.16 1017.66 1017.20 1016.78 1016.41 1016.07 1015.77 1015.48 1015.23 1015.00 1014.81 1014.68 1014.65 1014.72 1014.94 1015.30 1015.81
1020.61 1021.10 1021.48 1021.76 1021.94 1022.02 1022.05 1022.05 1022.04 1022.05 1022.09 1022.15 1022.23 1022.30 1022.35 1022.34 1022.27 1022.11 1021.86 1021.52 1021.10 1020.60 1020.05 1019.45 1018.85 1018.25 1017.67 1017.15 1016.68 1016.27 1015.93 1015.63 1015.38 1015.17 1014.97 1014.80 1014.65 1014.56 1014.53 1014.61 1014.81 1015.14 1015.62
1020.54 1020.93 1021.25 1021.47 1021.63 1021.73 1021.81 1021.87 1021.93 1022.00 1022.09 1022.18 1022.27 1022.33 1022.35 1022.31 1022.20 1022.01 1021.72 1021.35 1020.90 1020.37 1019.78 1019.15 1018.50 1017.87 1017.27 1016.72 1016.24 1015.85 1015.53 1015.28 1015.08 1014.93 1014.80 1014.69 1014.60 1014.54 1014.54 1014.61 1014.80 1015.10 1015.54
1020.39 1020.72 1020.98 1021.19 1021.35 1021.49 1021.63 1021.75 1021.89 1022.01 1022.14 1022.25 1022.32 1022.36 1022.34 1022.26 1022.11 1021.88 1021.57 1021.17 1020.71 1020.17 1019.57 1018.94 1018.28 1017.63 1017.01 1016.45 1015.97 1015.57 1015.27 1015.05 1014.90 1014.80 1014.73 1014.68 1014.64 1014.63 1014.66 1014.74 1014.91 1015.19 1015.58
1020.23 1020.52 1020.77 1020.97 1021.17 1021.36 1021.55 1021.73 1021.92 1022.08 1022.22 1022.32 1022.36 1022.36 1022.29 1022.16 1021.97 1021.71 1021.40 1021.01 1020.56 1020.05 1019.48 1018.87 1018.23 1017.59 1016.97 1016.41 1015.92 1015.52 1015.22 1015.02 1014.89 1014.82 1014.79 1014.79 1014.81 1014.84 1014.90 1015.00 1015.17 1015.42 1015.76
1020.09 1020.38 1020.63 1020.86 1021.09 1021.33 1021.57 1021.80 1022.00 1022.17 1022.29 1022.36 1022.35 1022.29 1022.17 1022.00 1021.78 1021.52 1021.22 1020.87 1020.48 1020.02 1019.52 1018.96 1018.37 1017.77 1017.18 1016.63 1016.14 1015.73 1015.42 1015.21 1015.09 1015.03 1015.03 1015.06 1015.11 1015.18 1015.27 1015.39 1015.56 1015.79 1016.09
1020.01 1020.32 1020.59 1020.86 1021.13 1021.39 1021.66 1021.90 1022.10 1022.24 1022.32 1022.33 1022.26 1022.14 1021.96 1021.76 1021.53 1021.29 1021.03 1020.75 1020.44 1020.09 1019.68 1019.22 1018.71 1018.17 1017.62 1017.09 1016.61 1016.20 1015.87 1015.64 1015.50 1015.44 1015.44 1015.48 1015.55 1015.65 1015.76 1015.90 1016.07 1016.28 1016.55
1020.03 1020.35 1020.66 1020.95 1021.24 1021.52 1021.77 1021.99 1022.16 1022.25 1022.26 1022.19 1022.06 1021.87 1021.66 1021.44 1021.22 1021.02 1020.83 1020.65 1020.44 1020.21 1019.92 1019.58 1019.17 1018.72 1018.24 1017.75 1017.29 1016.87 1016.53 1016.28 1016.11 1016.02 1016.00 1016.04 1016.11 1016.21 1016.33 1016.48 1016.64 1016.85 1017.09
1020.12 1020.47 1020.79 1021.10 1021.38 1021.65 1021.88 1022.05 1022.14 1022.16 1022.09 1021.95 1021.75 1021.52 1021.28 1021.05 1020.87 1020.72 1020.62 1020.53 1020.45 1020.35 1020.20 1019.98 1019.69 1019.34 1018.93 1018.50 1018.06 1017.66 1017.31 1017.03 1016.83 1016.70 1016.65 1016.66 1016.71 1016.80 1016.92 1017.06 1017.22 1017.41 1017.63
1020.26 1020.62 1020.95 1021.25 1021.52 1021.75 1021.92 1022.02 1022.04 1021.97 1021.82 1021.61 1021.36 1021.09 1020.84 1020.64 1020.49 1020.42 1020.39 1020.41 1020.45 1020.46 1020.44 1020.34 1020.17 1019.91 1019.59 1019.22 1018.83 1018.44 1018.09 1017.79 1017.55 1017.39 1017.30 1017.27 1017.29 1017.35 1017.45 1017.57 1017.72 1017.89 1018.09
1020.41 1020.77 1021.09 1021.37 1021.60 1021.77 1021.88 1021.90 1021.84 1021.70 1021.49 1021.23 1020.94 1020.66 1020.42 1020.24 1020.14 1020.13 1020.18 1020.28 1020.41 1020.52 1020.59 1020.59 1020.51 1020.34 1020.10 1019.79 1019.45 1019.09 1018.74 1018.43 1018.17 1017.98 1017.84 1017.77 1017.74 1017.77 1017.84 1017.94 1018.07 1018.22 1018.39
1020.50 1020.85 1021.15 1021.40 1021.58 1021.70 1021.74 1021.70 1021.58 1021.38 1021.13 1020.84 1020.55 1020.28 1020.06 1019.92 1019.86 1019.89 1019.99 1020.15 1020.32 1020.49 1020.62 1020.68 1020.66 1020.56 1020.38 1020.13 1019.83 1019.50 1019.18 1018.87 1018.60 1018.37 1018.20 1018.08 1018.02 1018.00 1018.03 1018.10 1018.21 1018.34 1018.50
1020.48 1020.82 1021.10 1021.31 1021.45 1021.53 1021.52 1021.43 1021.28 1021.06 1020.79 1020.51 1020.24 1020.00 1019.82 1019.71 1019.69 1019.74 1019.86 1020.02 1020.20 1020.37 1020.51 1020.59 1020.59 1020.52 1020.38 1020.17 1019.92 1019.63 1019.33 1019.04 1018.77 1018.53 1018.33 1018.18 1018.08 1018.02 1018.02 1018.06 1018.14 1018.26 1018.40
Thickness
5709 5708 5707 5705 5703 5700 5697 5694 5691 5689 5687 5683 5680 5676 5672 5670 5668 5665 5664 5662 5660 5658 5656 5654 5653 5651 5650 5649 5648 5648 5647 5646 5647 5648 5649 5650 5651 5652 5653 5654 5655 5656 5657
5704 5702 5700 5699 5697 5694 5690 5688 5685 5683 5681 5677 5673 5670 5666 5662 5660 5658 5657 5655 5653 5651 5649 5646 5644 5642 5641 5640 5639 5638 5637 5636 5637 5636 5637 5638 5640 5642 5644 5645 5646 5646 5648
5702 5699 5696 5694 5691 5688 5685 5682 5678 5676 5673 5670 5667 5663 5659 5656 5653 5651 5649 5647 5645 5643 5640 5638 5636 5634 5632 5630 5630 5629 5628 5626 5626 5627 5627 5626 5627 5629 5633 5634 5635 5636 5638
5701 5697 5693 5689 5685 5682 5679 5675 5672 5670 5666 5663 5660 5657 5652 5647 5645 5642 5641 5639 5637 5635 5633 5630 5628 5626 5624 5622 5621 5619 5619 5618 5617 5617 5617 5617 5618 5618 5621 5624 5625 5627 5628
5698 5694 5690 5686 5681 5677 5673 5670 5667 5664 5660 5657 5654 5650 5645 5641 5638 5635 5633 5631 5629 5627 5625 5623 5620 5618 5616 5614 5612 5611 5611 5610 5609 5608 5608 5608 5609 5610 5611 5613 5614 5616 5618
5694 5689 5685 5680 5675 5671 5667 5663 5661 5657 5654 5650 5646 5643 5638 5634 5631 5627 5625 5622 5621 5619 5617 5615 5613 5610 5608 5606 5605 5604 5603 5602 5601 5601 5600 5600 5600 5601 5602 5603 5604 5605 5608
5689 5684 5679 5675 5670 5665 5661 5657 5654 5650 5647 5643 5639 5635 5632 5628 5624 5621 5618 5615 5613 5611 5610 5608 5605 5603 5602 5600 5598 5596 5595 5595 5594 5594 5593 5593 5593 5593 5594 5594 5595 5597 5599
5683 5679 5674 5669 5665 5659 5654 5651 5647 5644 5640 5636 5633 5629 5626 5622 5619 5615 5612 5609 5606 5604 5602 5600 5598 5596 5594 5592 5591 5589 5588 5587 5587 5587 5586 5586 5586 5586 5587 5587 5588 5589 5591
5678 5674 5669 5663 5659 5653 5648 5645 5641 5637 5633 5630 5626 5623 5619 5615 5612 5609 5606 5603 5600 5598 5595 5593 5591 5589 5587 5586 5584 5582 5581 5580 5580 5580 5580 5580 5580 5580 5581 5582 5582 5583 5585
5672 5668 5663 5658 5653 5648 5643 5638 5635 5630 5626 5623 5619 5616 5612 5609 5605 5602 5599 5596 5594 5591 5589 5586 5584 5582 5581 5579 5578 5576 5575 5575 5574 5574 5574 5574 5575 5575 5575 5576 5577 5578 5579
5665 5661 5657 5653 5648 5643 5637 5632 5628 5624 5620 5616 5613 5608 5604 5601 5598 5595 5592 5590 5587 5585 5583 5580 5578 5577 5575 5573 5572 5571 5570 5569 5569 5569 5569 5569 5570 5570 5570 5571 5571 5572 5572
5659 5655 5651 5646 5642 5637 5632 5627 5623 5619 5615 5611 5606 5601 5597 5594 5591 5588 5586 5583 5581 5579 5577 5575 5573 5571 5569 5567 5566 5565 5565 5564 5563 5563 5563 5564 5565 5565 5565 5565 5566 5566 5566
5652 5647 5643 5639 5635 5631 5627 5622 5618 5614 5609 5605 5600 5595 5591 5588 5585 5583 5580 5577 5575 5573 5571 5569 5567 5564 5563 5561 5560 5559 5559 5558 5557 5557 5557 5558 5559 5559 5559 5559 5560 5561 5561
5646 5642 5637 5633 5629 5625 5621 5617 5613 5609 5605 5600 5595 5590 5587 5584 5580 5577 5575 5572 5569 5567 5565 5563 5561 5559 5557 5556 5555 5554 5553 5552 5552 5552 5553 5553 5554 5554 5554 5554 5555 5556 5556
5642 5638 5634 5629 5624 5620 5616 5613 5609 5605 5601 5595 5590 5586 5583 5580 5576 5573 5570 5567 5564 5562 5560 5558 5556 5554 5553 5551 5550 5549 5548 5547 5547 5548 5548 5549 5550 5550 5550 5551 5551 5551 5551
5640 5635 5631 5626 5621 5617 5613 5609 5605 5601 5597 5592 5587 5583 5580 5576 5572 5569 5566 5563 5560 5558 5556 5554 5552 5550 5548 5547 5546 5545 5543 5542 5542 5543 5544 5545 5546 5546 5547 5547 5547 5548 5548
5638 5633 5629 5624 5620 5615 5611 5606 5602 5597 5593 5588 5584 5581 5577 5573 5569 5566 5563 5560 5557 5554 5552 5550 5548 5546 5544 5544 5543 5541 5540 5538 5538 5538 5539 5541 5541 5541 5542 5543 5544 5544 5545
5636 5632 5627 5622 5618 5613 5608 5604 5599 5594 5590 5585 5582 5578 5574 5570 5566 5563 5560 5557 5555 5552 5550 5547 5545 5543 5542 5541 5541 5539 5537 5536 5535 5535 5535 5536 5537 5537 5538 5539 5540 5541 5542
5636 5631 5626 5621 5616 5611 5606 5601 5596 5592 5587 5583 5580 5576 5572 5568 5564 5561 5558 5555 5553 5550 5548 5546 5543 5541 5540 5540 5538 5537 5535 5533 5533 5532 5532 5533 5533 5534 5534 5535 5536 5538 5539
5633 5628 5623 5618 5614 5609 5604 5599 5594 5590 5586 5583 5579 5575 5571 5566 5563 5559 5557 5554 5551 5549 5547 5545 5543 5541 5539 5538 5537 5535 5533 5532 5531 5531 5531 5531 5531 5532 5532 5533 5533 5535 5536
5630 5626 5621 5616 5612 5607 5602 5597 5593 5589 5586 5582 5578 5574 5570 5566 5562 5559 5556 5553 5550 5548 5546 5544 5543 5541 5539 5538 5536 5534 5532 5531 5530 5530 5530 5530 5530 5531 5532 5532 5532 5533 5534
5627 5624 5619 5614 5610 5606 5601 5596 5592 5589 5585 5580 5577 5573 5569 5566 5563 5559 5556 5553 5550 5548 5546 5544 5543 5542 5540 5539 5537 5535 5534 5532 5530 5530 5530 5530 5531 5531 5532 5532 5533 5533 5533
5626 5622 5617 5612 5608 5604 5600 5596 5592 5588 5583 5579 5575 5572 5569 5566 5562 5559 5556 5553 5551 5548 5547 5545 5543 5543 5542 5541 5539 5538 5535 5533 5531 5531 5531 5531 5532 5532 5533 5534 5534 5534 5534
5624 5620 5615 5611 5606 5602 5599 5596 5592 5588 5583 5578 5575 5572 5569 5566 5563 5559 5557 5555 5552 5550 5549 5547 5546 5544 5543 5543 5541 5539 5537 5535 5534 5533 5533 5533 5533 5533 5534 5534 5535 5535 5535
5622 5618 5615 5610 5606 5602 5599 5596 5592 5587 5582 5578 5575 5572 5569 5566 5563 5561 5559 5557 5556 5553 5551 5550 5548 5546 5546 5546 5543 5540 5539 5537 5536 5535 5535 5536 5536 5536 5536 5536 5537 5537 5537
5620 5616 5613 5609 5606 5602 5599 5596 5592 5587 5583 5578 5575 5572 5569 5567 5564 5562 5561 5561 5559 5558 5556 5554 5552 5550 5549 5548 5546 5544 5542 5540 5539 5537 5538 5538 5538 5537 5538 5538 5539 5540 5540